TAP241 LPPT-GMMN

Flight info

Callsign TAP241
Flight time 1h 5m
Altitude 41000
Route DUZOP DCT AMSEL UR722 LAKAM
Aircraft A339/H-SADE1E2E3GHIJ3J5M1P2RWXY/LB2D1

Departure

Time 2026-05-07 18:29
Airport Lisbon Humberto Delgado Airport (LPPT)

Arrival

Time 2026-05-07 19:34
Airport Mohammed V International Airport (GMMN)
Time Latitude Longitude Altitude Speed Heading
2026-05-07 17:45 38.77426 -9.13152 329 ft 0 kts 78°
2026-05-07 17:46 38.77369 -9.13144 329 ft 0 kts 78°
2026-05-07 18:14 38.77367 -9.13159 329 ft 2 kts 78°
2026-05-07 18:14 38.77364 -9.13177 329 ft 2 kts 78°
2026-05-07 18:15 38.77361 -9.13196 329 ft 2 kts 78°
2026-05-07 18:15 38.77358 -9.13215 329 ft 2 kts 78°
2026-05-07 18:15 38.77356 -9.13227 329 ft 1 kts 78°
2026-05-07 18:15 38.77351 -9.13245 329 ft 2 kts 45°
2026-05-07 18:16 38.77338 -9.13255 329 ft 2 kts 13°
2026-05-07 18:16 38.77327 -9.13256 329 ft 0 kts 351°
2026-05-07 18:16 38.77322 -9.13255 329 ft 0 kts 350°
2026-05-07 18:20 38.77325 -9.13257 329 ft 1 kts 331°
2026-05-07 18:20 38.77329 -9.13290 328 ft 7 kts 259°
2026-05-07 18:20 38.77319 -9.13355 328 ft 6 kts 260°
2026-05-07 18:20 38.77312 -9.13402 329 ft 0 kts 259°
2026-05-07 18:21 38.77311 -9.13406 329 ft 3 kts 259°
2026-05-07 18:21 38.77301 -9.13479 332 ft 8 kts 258°
2026-05-07 18:21 38.77290 -9.13543 335 ft 5 kts 258°
2026-05-07 18:22 38.77282 -9.13587 339 ft 10 kts 258°
2026-05-07 18:22 38.77278 -9.13614 341 ft 8 kts 258°
2026-05-07 18:22 38.77261 -9.13715 351 ft 11 kts 258°
2026-05-07 18:22 38.77237 -9.13822 355 ft 11 kts 241°
2026-05-07 18:23 38.77173 -9.13871 356 ft 10 kts 193°
2026-05-07 18:23 38.77108 -9.13908 355 ft 10 kts 206°
2026-05-07 18:23 38.77034 -9.13949 354 ft 13 kts 202°
2026-05-07 18:23 38.76935 -9.14002 349 ft 17 kts 203°
2026-05-07 18:24 38.76813 -9.14069 345 ft 19 kts 203°
2026-05-07 18:24 38.76683 -9.14138 344 ft 20 kts 201°
2026-05-07 18:24 38.76598 -9.14200 345 ft 6 kts 255°
2026-05-07 18:24 38.76598 -9.14202 345 ft 0 kts 258°
2026-05-07 18:25 38.76597 -9.14203 345 ft 0 kts 259°
2026-05-07 18:25 38.76597 -9.14230 345 ft 4 kts 274°
2026-05-07 18:25 38.76605 -9.14266 345 ft 0 kts 291°
2026-05-07 18:26 38.76605 -9.14267 345 ft 1 kts 291°
2026-05-07 18:27 38.76613 -9.14292 345 ft 4 kts 291°
2026-05-07 18:27 38.76632 -9.14336 345 ft 6 kts 309°
2026-05-07 18:27 38.76677 -9.14364 344 ft 8 kts 358°
2026-05-07 18:27 38.76708 -9.14355 344 ft 0 kts 24°
2026-05-07 18:28 38.76782 -9.14314 343 ft 42 kts 23°
2026-05-07 18:28 38.77324 -9.14030 360 ft 122 kts 22°
2026-05-07 18:29 38.78314 -9.13476 464 ft 179 kts 20°
2026-05-07 18:29 38.79497 -9.12775 1071 ft 196 kts 24°
2026-05-07 18:29 38.80690 -9.11943 2037 ft 197 kts 26°
2026-05-07 18:29 38.81866 -9.11085 2954 ft 201 kts 27°
2026-05-07 18:30 38.83135 -9.10196 3563 ft 215 kts 27°
2026-05-07 18:30 38.84493 -9.09275 4000 ft 233 kts 27°
2026-05-07 18:30 38.86005 -9.08268 4472 ft 251 kts 27°
2026-05-07 18:30 38.87486 -9.06961 4906 ft 269 kts 51°
2026-05-07 18:31 38.88335 -9.04813 5492 ft 277 kts 82°
2026-05-07 18:31 38.88211 -9.02422 6320 ft 270 kts 114°
2026-05-07 18:31 38.87191 -9.00528 7215 ft 261 kts 143°
2026-05-07 18:31 38.85571 -8.99529 8017 ft 261 kts 167°
2026-05-07 18:32 38.83798 -8.99041 8773 ft 266 kts 168°
2026-05-07 18:32 38.82006 -8.98523 9546 ft 269 kts 168°
2026-05-07 18:32 38.80157 -8.97980 10278 ft 275 kts 167°
2026-05-07 18:32 38.78249 -8.97420 10715 ft 291 kts 167°
2026-05-07 18:33 38.76211 -8.96823 11088 ft 309 kts 167°
2026-05-07 18:33 38.74080 -8.96197 11688 ft 318 kts 167°
2026-05-07 18:33 38.71927 -8.95564 12482 ft 321 kts 167°
2026-05-07 18:33 38.69748 -8.94921 13244 ft 325 kts 167°
2026-05-07 18:34 38.67542 -8.94273 13979 ft 329 kts 167°
2026-05-07 18:34 38.65321 -8.93619 14722 ft 333 kts 168°
2026-05-07 18:34 38.63047 -8.92949 15494 ft 336 kts 168°
2026-05-07 18:34 38.60776 -8.92283 16268 ft 338 kts 168°
2026-05-07 18:35 38.58470 -8.91608 17020 ft 341 kts 168°
2026-05-07 18:35 38.56163 -8.90934 17710 ft 345 kts 168°
2026-05-07 18:35 38.53814 -8.90247 18426 ft 348 kts 169°
2026-05-07 18:35 38.51438 -8.89551 19137 ft 352 kts 169°
2026-05-07 18:36 38.49055 -8.88854 19753 ft 356 kts 169°
2026-05-07 18:36 38.46624 -8.88143 20371 ft 361 kts 170°
2026-05-07 18:36 38.44185 -8.87432 20973 ft 365 kts 170°
2026-05-07 18:36 38.41680 -8.86703 21522 ft 370 kts 171°
2026-05-07 18:37 38.39197 -8.85980 22057 ft 374 kts 171°
2026-05-07 18:37 38.36651 -8.85213 22597 ft 378 kts 168°
2026-05-07 18:37 38.34111 -8.84199 23106 ft 384 kts 166°
2026-05-07 18:37 38.31587 -8.83113 23682 ft 387 kts 165°
2026-05-07 18:38 38.29042 -8.82015 24233 ft 390 kts 166°
2026-05-07 18:38 38.26455 -8.80913 24785 ft 393 kts 166°
2026-05-07 18:38 38.23836 -8.79805 25313 ft 396 kts 166°
2026-05-07 18:38 38.21240 -8.78716 25844 ft 399 kts 166°
2026-05-07 18:39 38.18570 -8.77600 26323 ft 403 kts 166°
2026-05-07 18:39 38.15919 -8.76497 26805 ft 405 kts 166°
2026-05-07 18:39 38.13227 -8.75380 27285 ft 408 kts 166°
2026-05-07 18:39 38.10514 -8.74255 27746 ft 411 kts 166°
2026-05-07 18:40 38.07784 -8.73124 28188 ft 414 kts 166°
2026-05-07 18:40 38.05050 -8.71993 28665 ft 416 kts 166°
2026-05-07 18:40 38.02315 -8.70863 29065 ft 420 kts 166°
2026-05-07 18:40 37.99505 -8.69703 29460 ft 423 kts 166°
2026-05-07 18:41 37.96733 -8.68560 29863 ft 426 kts 166°
2026-05-07 18:41 37.93879 -8.67382 30257 ft 428 kts 167°
2026-05-07 18:41 37.91051 -8.66216 30650 ft 431 kts 167°
2026-05-07 18:41 37.88206 -8.65045 31074 ft 432 kts 167°
2026-05-07 18:42 37.85364 -8.63876 31465 ft 434 kts 167°
2026-05-07 18:42 37.82474 -8.62687 31856 ft 436 kts 167°
2026-05-07 18:42 37.79573 -8.61497 32212 ft 439 kts 167°
2026-05-07 18:42 37.76692 -8.60317 32567 ft 441 kts 168°
2026-05-07 18:43 37.73780 -8.59122 32935 ft 442 kts 167°
2026-05-07 18:43 37.70849 -8.57924 33367 ft 442 kts 168°
2026-05-07 18:43 37.67914 -8.56721 33921 ft 440 kts 168°
2026-05-07 18:43 37.65026 -8.55537 34525 ft 436 kts 168°
2026-05-07 18:44 37.62159 -8.54364 35110 ft 434 kts 169°
2026-05-07 18:44 37.59300 -8.53196 35622 ft 432 kts 169°
2026-05-07 18:44 37.56446 -8.52035 36069 ft 432 kts 169°
2026-05-07 18:44 37.53598 -8.50876 36486 ft 431 kts 169°
2026-05-07 18:45 37.50747 -8.49717 36927 ft 430 kts 169°
2026-05-07 18:45 37.47926 -8.48569 37327 ft 430 kts 169°
2026-05-07 18:45 37.45071 -8.47410 37680 ft 430 kts 170°
2026-05-07 18:45 37.42220 -8.46253 38038 ft 430 kts 170°
2026-05-07 18:46 37.39400 -8.45111 38374 ft 430 kts 169°
2026-05-07 18:46 37.36553 -8.43958 38766 ft 428 kts 170°
2026-05-07 18:46 37.33714 -8.42807 39124 ft 427 kts 170°
2026-05-07 18:46 37.30893 -8.41664 39375 ft 428 kts 170°
2026-05-07 18:47 37.28053 -8.40519 39563 ft 430 kts 170°
2026-05-07 18:47 37.22427 -8.38246 39612 ft 430 kts 170°
2026-05-07 18:47 37.19566 -8.37097 39737 ft 433 kts 170°
2026-05-07 18:48 37.16687 -8.35938 39956 ft 434 kts 170°
2026-05-07 18:48 37.13783 -8.34768 40174 ft 435 kts 171°
2026-05-07 18:48 37.10896 -8.33606 40373 ft 436 kts 171°
2026-05-07 18:48 37.08004 -8.32441 40485 ft 437 kts 171°
2026-05-07 18:49 37.05103 -8.31277 40599 ft 438 kts 171°
2026-05-07 18:49 37.02204 -8.30113 40731 ft 439 kts 171°
2026-05-07 18:49 36.99290 -8.28943 40843 ft 439 kts 171°
2026-05-07 18:50 36.93440 -8.26602 40896 ft 442 kts 171°
2026-05-07 18:50 36.87565 -8.24249 40905 ft 445 kts 171°
2026-05-07 18:51 36.81708 -8.21907 40903 ft 443 kts 171°
2026-05-07 18:51 36.75837 -8.19566 40908 ft 445 kts 171°
2026-05-07 18:52 36.69907 -8.17205 40908 ft 445 kts 170°
2026-05-07 18:52 36.64041 -8.14873 40908 ft 445 kts 171°
2026-05-07 18:53 36.58156 -8.12536 40907 ft 445 kts 170°
2026-05-07 18:53 36.52278 -8.10206 40905 ft 445 kts 171°
2026-05-07 18:54 36.46391 -8.07878 40910 ft 445 kts 171°
2026-05-07 18:54 36.40488 -8.05547 40909 ft 444 kts 171°
2026-05-07 18:55 36.34629 -8.03236 40909 ft 444 kts 171°
2026-05-07 18:55 36.28705 -8.00903 40915 ft 445 kts 171°
2026-05-07 18:56 36.22822 -7.98589 40916 ft 444 kts 171°
2026-05-07 18:56 36.16956 -7.96287 40920 ft 446 kts 171°
2026-05-07 18:57 36.11035 -7.93965 40914 ft 445 kts 171°
2026-05-07 18:57 36.05144 -7.91659 40920 ft 444 kts 171°
2026-05-07 18:58 35.99247 -7.89542 40920 ft 440 kts 174°
2026-05-07 18:58 35.93269 -7.88159 40923 ft 433 kts 180°
2026-05-07 18:59 35.87315 -7.87496 40925 ft 431 kts 184°
2026-05-07 18:59 35.81308 -7.86952 40927 ft 431 kts 184°
2026-05-07 19:00 35.75372 -7.86407 40929 ft 430 kts 184°
2026-05-07 19:00 35.69373 -7.85863 40930 ft 431 kts 184°
2026-05-07 19:01 35.63417 -7.85326 40929 ft 431 kts 184°
2026-05-07 19:01 35.57418 -7.84784 40930 ft 431 kts 184°
2026-05-07 19:02 35.51477 -7.84246 40930 ft 431 kts 184°
2026-05-07 19:02 35.45486 -7.83705 40925 ft 431 kts 184°
2026-05-07 19:03 35.39513 -7.83175 40808 ft 433 kts 184°
2026-05-07 19:03 35.36483 -7.82914 40280 ft 437 kts 183°
2026-05-07 19:03 35.33457 -7.82232 39593 ft 449 kts 172°
2026-05-07 19:03 35.30497 -7.81069 38906 ft 452 kts 169°
2026-05-07 19:04 35.27555 -7.79784 38551 ft 446 kts 168°
2026-05-07 19:04 35.24650 -7.78484 38326 ft 438 kts 168°
2026-05-07 19:04 35.21817 -7.77211 38109 ft 440 kts 169°
2026-05-07 19:04 35.18898 -7.76235 37873 ft 427 kts 180°
2026-05-07 19:05 35.15971 -7.76105 37825 ft 414 kts 192°
2026-05-07 19:05 35.10305 -7.77008 37838 ft 412 kts 195°
2026-05-07 19:05 35.07449 -7.77513 37475 ft 413 kts 195°
2026-05-07 19:06 35.04602 -7.78023 36911 ft 414 kts 195°
2026-05-07 19:06 34.98904 -7.78992 35795 ft 417 kts 192°
2026-05-07 19:06 34.96029 -7.79223 34989 ft 425 kts 188°
2026-05-07 19:07 34.93001 -7.79243 33652 ft 441 kts 184°
2026-05-07 19:07 34.89939 -7.79060 32372 ft 455 kts 182°
2026-05-07 19:07 34.86731 -7.78791 31488 ft 458 kts 181°
2026-05-07 19:07 34.83577 -7.78505 31081 ft 451 kts 181°
2026-05-07 19:08 34.80488 -7.78226 30670 ft 444 kts 181°
2026-05-07 19:08 34.77448 -7.77962 30265 ft 437 kts 182°
2026-05-07 19:08 34.74426 -7.77707 29866 ft 431 kts 182°
2026-05-07 19:08 34.71465 -7.77481 29489 ft 425 kts 182°
2026-05-07 19:09 34.68515 -7.77276 29091 ft 419 kts 183°
2026-05-07 19:09 34.65623 -7.77079 28709 ft 414 kts 183°
2026-05-07 19:09 34.62774 -7.76883 28330 ft 409 kts 183°
2026-05-07 19:09 34.59974 -7.76690 27948 ft 404 kts 183°
2026-05-07 19:10 34.57182 -7.76498 27568 ft 400 kts 183°
2026-05-07 19:10 34.54400 -7.76305 27182 ft 396 kts 183°
2026-05-07 19:10 34.51688 -7.76117 26812 ft 392 kts 183°
2026-05-07 19:10 34.48974 -7.75929 26437 ft 387 kts 183°
2026-05-07 19:11 34.46273 -7.75741 26067 ft 383 kts 183°
2026-05-07 19:11 34.43631 -7.75558 25699 ft 380 kts 183°
2026-05-07 19:11 34.40998 -7.75374 25330 ft 376 kts 183°
2026-05-07 19:11 34.38407 -7.75194 24971 ft 372 kts 183°
2026-05-07 19:12 34.35824 -7.75016 24607 ft 369 kts 182°
2026-05-07 19:12 34.33279 -7.74840 24254 ft 365 kts 182°
2026-05-07 19:12 34.30768 -7.74665 23900 ft 362 kts 182°
2026-05-07 19:12 34.28238 -7.74490 23542 ft 359 kts 183°
2026-05-07 19:13 34.25767 -7.74320 23199 ft 356 kts 183°
2026-05-07 19:13 34.23316 -7.74149 22860 ft 352 kts 183°
2026-05-07 19:13 34.20866 -7.73981 22517 ft 350 kts 182°
2026-05-07 19:13 34.18452 -7.73813 22175 ft 347 kts 182°
2026-05-07 19:14 34.16046 -7.73605 21832 ft 345 kts 181°
2026-05-07 19:14 34.13652 -7.73377 21484 ft 343 kts 181°
2026-05-07 19:14 34.11264 -7.73151 21133 ft 341 kts 181°
2026-05-07 19:14 34.08915 -7.72930 20788 ft 339 kts 181°
2026-05-07 19:15 34.06555 -7.72710 20445 ft 337 kts 181°
2026-05-07 19:15 34.04230 -7.72495 20101 ft 335 kts 181°
2026-05-07 19:15 34.01897 -7.72279 19754 ft 334 kts 181°
2026-05-07 19:15 33.99607 -7.72067 19411 ft 332 kts 181°
2026-05-07 19:16 33.97297 -7.71855 19067 ft 330 kts 181°
2026-05-07 19:16 33.95018 -7.71644 18706 ft 329 kts 181°
2026-05-07 19:16 33.92727 -7.71436 18345 ft 328 kts 181°
2026-05-07 19:16 33.90441 -7.71225 17995 ft 327 kts 180°
2026-05-07 19:17 33.88180 -7.71017 17642 ft 326 kts 180°
2026-05-07 19:17 33.85908 -7.70808 17298 ft 324 kts 180°
2026-05-07 19:17 33.83674 -7.70603 16966 ft 323 kts 180°
2026-05-07 19:17 33.81426 -7.70397 16633 ft 321 kts 180°
2026-05-07 19:18 33.79195 -7.70192 16302 ft 320 kts 180°
2026-05-07 19:18 33.76984 -7.69989 15977 ft 318 kts 180°
2026-05-07 19:18 33.74775 -7.69786 15664 ft 316 kts 180°
2026-05-07 19:18 33.72568 -7.69584 15342 ft 315 kts 179°
2026-05-07 19:19 33.70386 -7.69384 15003 ft 313 kts 179°
2026-05-07 19:19 33.68211 -7.69184 14685 ft 311 kts 179°
2026-05-07 19:19 33.66045 -7.68986 14365 ft 309 kts 179°
2026-05-07 19:19 33.63907 -7.68789 14054 ft 308 kts 179°
2026-05-07 19:20 33.61776 -7.68595 13745 ft 306 kts 179°
2026-05-07 19:20 33.59656 -7.68400 13432 ft 304 kts 179°
2026-05-07 19:20 33.57554 -7.68208 13106 ft 303 kts 179°
2026-05-07 19:20 33.55445 -7.68014 12791 ft 301 kts 179°
2026-05-07 19:21 33.53373 -7.67858 12474 ft 299 kts 181°
2026-05-07 19:21 33.51298 -7.67857 12146 ft 298 kts 184°
2026-05-07 19:21 33.49216 -7.68018 11755 ft 299 kts 187°
2026-05-07 19:21 33.47145 -7.68230 11420 ft 298 kts 187°
2026-05-07 19:22 33.45102 -7.68443 11102 ft 297 kts 187°
2026-05-07 19:22 33.43023 -7.68659 10782 ft 296 kts 187°
2026-05-07 19:22 33.40990 -7.68871 10442 ft 296 kts 187°
2026-05-07 19:22 33.38923 -7.69085 10131 ft 294 kts 187°
2026-05-07 19:23 33.36932 -7.69290 10070 ft 283 kts 187°
2026-05-07 19:23 33.35007 -7.69489 10026 ft 273 kts 187°
2026-05-07 19:23 33.33141 -7.69683 9985 ft 262 kts 187°
2026-05-07 19:23 33.31341 -7.69871 9873 ft 258 kts 187°
2026-05-07 19:24 33.29570 -7.70056 9579 ft 258 kts 187°
2026-05-07 19:24 33.27756 -7.70248 9299 ft 258 kts 187°
2026-05-07 19:24 33.25982 -7.70432 9039 ft 257 kts 187°
2026-05-07 19:24 33.24182 -7.70619 8774 ft 256 kts 186°
2026-05-07 19:25 33.22426 -7.70968 8504 ft 254 kts 198°
2026-05-07 19:25 33.20778 -7.71758 8234 ft 253 kts 205°
2026-05-07 19:25 33.19176 -7.72617 7966 ft 253 kts 202°
2026-05-07 19:25 33.17525 -7.73348 7711 ft 253 kts 198°
2026-05-07 19:26 33.15819 -7.73906 7457 ft 252 kts 193°
2026-05-07 19:26 33.14090 -7.74263 7193 ft 258 kts 184°
2026-05-07 19:26 33.12293 -7.73897 6907 ft 269 kts 156°
2026-05-07 19:26 33.10811 -7.72530 6637 ft 273 kts 129°
2026-05-07 19:27 33.09942 -7.70522 6389 ft 274 kts 112°
2026-05-07 19:27 33.09309 -7.68363 6054 ft 276 kts 110°
2026-05-07 19:27 33.08707 -7.66189 5705 ft 278 kts 109°
2026-05-07 19:27 33.08075 -7.63963 5352 ft 280 kts 109°
2026-05-07 19:28 33.07427 -7.61766 4999 ft 282 kts 109°
2026-05-07 19:28 33.06833 -7.59529 4608 ft 284 kts 97°
2026-05-07 19:28 33.06964 -7.57209 4202 ft 283 kts 70°
2026-05-07 19:28 33.07969 -7.55248 4011 ft 273 kts 41°
2026-05-07 19:29 33.09450 -7.53935 4015 ft 259 kts 31°
2026-05-07 19:29 33.10966 -7.52821 4016 ft 255 kts 29°
2026-05-07 19:29 33.12491 -7.51816 3999 ft 245 kts 17°
2026-05-07 19:29 33.14127 -7.51593 4005 ft 232 kts 354°
2026-05-07 19:30 33.15680 -7.51945 4011 ft 222 kts 345°
2026-05-07 19:30 33.17144 -7.52449 4009 ft 212 kts 343°
2026-05-07 19:30 33.18533 -7.52955 3937 ft 205 kts 343°
2026-05-07 19:30 33.19897 -7.53441 3702 ft 206 kts 344°
2026-05-07 19:31 33.21285 -7.53924 3431 ft 208 kts 344°
2026-05-07 19:31 33.22687 -7.54404 3154 ft 210 kts 345°
2026-05-07 19:31 33.24088 -7.54881 2874 ft 212 kts 344°
2026-05-07 19:31 33.25523 -7.55371 2598 ft 213 kts 344°
2026-05-07 19:32 33.26910 -7.55845 2271 ft 200 kts 343°
2026-05-07 19:32 33.28183 -7.56281 2051 ft 180 kts 345°
2026-05-07 19:32 33.29347 -7.56677 1849 ft 169 kts 344°
2026-05-07 19:32 33.30453 -7.57054 1610 ft 160 kts 343°
2026-05-07 19:33 33.31489 -7.57413 1408 ft 150 kts 346°
2026-05-07 19:33 33.32478 -7.57749 1221 ft 143 kts 343°
2026-05-07 19:33 33.33403 -7.58066 1033 ft 136 kts 345°
2026-05-07 19:33 33.34300 -7.58378 844 ft 131 kts 345°
2026-05-07 19:34 33.35183 -7.58682 697 ft 132 kts 346°
2026-05-07 19:34 33.36019 -7.58954 663 ft 110 kts 343°
2026-05-07 19:34 33.36583 -7.59152 657 ft 58 kts 343°
2026-05-07 19:34 33.36887 -7.59251 656 ft 41 kts 344°
2026-05-07 19:35 33.37094 -7.59319 656 ft 26 kts 350°
2026-05-07 19:35 33.37267 -7.59306 658 ft 24 kts 13°
2026-05-07 19:35 33.37424 -7.59260 659 ft 22 kts 13°
2026-05-07 19:35 33.37513 -7.59234 660 ft 0 kts 13°
2026-05-07 19:36 33.37517 -7.59233 660 ft 3 kts 13°
2026-05-07 19:37 33.37565 -7.59219 659 ft 8 kts 13°
2026-05-07 19:37 33.37631 -7.59200 660 ft 10 kts 13°
2026-05-07 19:37 33.37705 -7.59178 660 ft 11 kts 14°
2026-05-07 19:37 33.37785 -7.59141 659 ft 12 kts 38°
2026-05-07 19:38 33.37829 -7.59047 658 ft 14 kts 72°
2026-05-07 19:38 33.37854 -7.58940 655 ft 0 kts 73°
2026-05-07 19:39 33.37854 -7.58939 655 ft 0 kts 73°
2026-05-07 19:39 33.37859 -7.58920 654 ft 5 kts 73°
2026-05-07 19:39 33.37875 -7.58857 653 ft 9 kts 73°
2026-05-07 19:39 33.37888 -7.58803 651 ft 10 kts 74°
2026-05-07 19:40 33.37909 -7.58674 647 ft 12 kts 106°
2026-05-07 19:40 33.37858 -7.58574 644 ft 14 kts 127°
2026-05-07 19:40 33.37795 -7.58495 646 ft 11 kts 150°
2026-05-07 19:40 33.37731 -7.58467 649 ft 8 kts 163°
2026-05-07 19:41 33.37678 -7.58449 651 ft 7 kts 164°
2026-05-07 19:41 33.37627 -7.58440 652 ft 9 kts 175°
2026-05-07 19:41 33.37549 -7.58420 656 ft 10 kts 165°
2026-05-07 19:41 33.37495 -7.58402 661 ft 6 kts 164°
2026-05-07 19:42 33.37454 -7.58389 663 ft 6 kts 163°
2026-05-07 19:42 33.37413 -7.58375 666 ft 4 kts 163°
2026-05-07 19:42 33.37391 -7.58363 667 ft 2 kts 128°
2026-05-07 19:42 33.37388 -7.58334 667 ft 5 kts 88°
2026-05-07 19:43 33.37394 -7.58293 668 ft 2 kts 77°
2026-05-07 19:43 33.37397 -7.58278 668 ft 0 kts 76°
2026-05-07 19:43 33.37398 -7.58274 668 ft 1 kts 76°